Weather observations for the past three days for
Frankfort, Frankfort Dow Memorial Field Airport
Imperial (Metric)
Date Time (edt) Wind (mph) Vis. (mi.) Weather Sky Cond. Temperature (ºF) Relative Humidity Wind Chill (°F) Heat Index (°F) Pressure Precipitation (in)
Air Dwpt 6 hour altimeter (in) sea level (mb) 1 hr 3 hr 6 hr
Max. Min.
31 01:35 Vrbl 1 10.00 Mostly Cloudy SCT045 BKN085 71.6 68 88% 29.95 0.0
31 01:15 S 3 10.00 Overcast OVC045 71.6 68 88% 29.95 0.0
31 00:55 S 3 10.00 Overcast OVC045 69.8 68 94% 29.95 0.0
31 00:35 Vrbl 2 10.00 Mostly Cloudy FEW043 BKN049 71.6 68 88% 29.94 0.0
31 00:15 Vrbl 1 7.00 Fog/Mist FEW050 69.8 68 94% 29.93 0.0
30 23:55 E 1 10.00 Mostly Cloudy BKN050 71.6 68 88% 29.93 0.0
30 23:35 S 1 10.00 Overcast OVC050 71.6 68 88% 29.94 0.0
30 23:15 Vrbl 2 10.00 Overcast OVC050 71.6 68 88% 29.93 0.0
30 22:55 SE 2 10.00 Overcast OVC050 71.6 69.8 94% 29.94 0.0
30 22:35 E 2 10.00 Overcast OVC048 71.6 68 88% 29.94 0.0
30 22:15 E 2 10.00 Overcast OVC048 71.6 68 88% 29.94 0.0
30 21:55 SE 2 10.00 Overcast OVC048 71.6 68 88% 29.94 0.0
30 21:35 SW 1 10.00 Overcast OVC050 71.6 68 88% 29.94 0.0
30 21:15 SE 2 10.00 Overcast BKN048 OVC050 71.6 68 88% 29.94 0.0
30 20:55 SE 3 10.00 Overcast FEW042 OVC050 73.4 68 83% 29.93 0.0
30 20:35 Calm 10.00 Overcast OVC050 73.4 68 83% 29.93 0.0
30 20:15 E 3 10.00 Overcast OVC050 73.4 68 83% 29.92 0.0
30 19:55 Vrbl 5 10.00 Overcast FEW031 OVC048 73.4 68 77.2 73.2 83% 29.92 0.0
30 19:35 NE 3 10.00 Mostly Cloudy BKN048 BKN060 73.4 68 83% 29.93 0.0
30 19:15 NE 8 10.00 Mostly Cloudy SCT048 BKN060 73.4 68 83% 29.92 0.0
30 18:55 E 5 10.00 Overcast OVC046 73.4 68 83% 29.91 0.0
30 18:35 SW 3 10.00 Overcast OVC048 73.4 68 83% 29.93 0.0
30 18:15 S 5 10.00 Overcast OVC050 75.2 68 78% 76 29.93 0.0
30 17:55 Vrbl 7 10.00 Overcast OVC065 77 68 74% 79 29.92 0.0
30 17:35 S 5 10.00 Overcast OVC065 75.2 68 78% 76 29.92 0.0
30 17:15 SW 8 G 17 10.00 Overcast OVC065 73.4 68 83% 29.93 0.0
30 16:55 SW 9 10.00 Overcast OVC065 73.4 68 83% 29.93 0.0
30 16:35 SW 13 G 20 10.00 Overcast OVC065 73.4 68 83% 29.93 0.0
30 16:15 SW 9 G 16 10.00 Overcast OVC065 73.4 68 83% 29.93 0.0
30 15:55 SW 7 10.00 Overcast OVC065 73.4 68 83% 29.93 0.0
30 15:35 SW 12 G 17 10.00 Mostly Cloudy BKN065 75.2 68 78% 76 29.93 0.0
30 15:15 SW 13 G 21 10.00 Overcast FEW035 BKN065 OVC075 77 68 74% 79 29.92 0.0
30 14:55 S 14 G 23 10.00 Overcast OVC065 75.2 68 78% 76 29.93 0.0
30 14:35 SW 12 G 20 10.00 Mostly Cloudy SCT065 BKN075 75.2 68 78% 76 29.93 0.0
30 14:15 S 14 G 20 10.00 Mostly Cloudy BKN075 75.2 68 78% 76 29.92 0.0
30 13:55 SW 13 G 20 10.00 Overcast OVC065 75.2 68 74.8 67.6 78% 76 29.93 0.0
30 13:35 SW 10 G 18 10.00 Overcast OVC075 75.2 68 78% 76 29.93 0.0
30 13:15 SW 13 G 20 10.00 Overcast OVC075 75.2 68 78% 76 29.94 0.0
30 12:55 S 12 G 17 10.00 Overcast OVC060 73.4 68 83% 29.94 0.0
30 12:35 S 9 10.00 Overcast FEW019 OVC060 75.2 68 78% 76 29.94 0.0
30 12:15 S 8 10.00 Overcast FEW019 BKN038 OVC060 75.2 68 78% 76 29.94 0.0
30 11:55 SE 7 10.00 Overcast OVC038 73.4 68 83% 29.94 0.0
30 11:35 S 8 10.00 Overcast FEW018 OVC036 71.6 66.2 83% 29.95 0.0
30 11:15 S 5 10.00 Overcast OVC036 69.8 66.2 88% 29.96 0.0
30 10:55 S 6 10.00 Overcast BKN036 OVC044 69.8 66.2 88% 29.95 0.0
30 10:35 S 9 10.00 Overcast FEW015 BKN034 OVC044 69.8 66.2 88% 29.94 0.0
30 10:15 S 8 10.00 Overcast OVC036 69.8 64.4 83% 29.95 0.0
30 09:55 S 5 10.00 Overcast OVC036 68 64.4 88% 29.96 0.0
30 09:35 S 6 10.00 Overcast OVC038 68 64.4 88% 29.95 0.0
30 09:15 Vrbl 7 10.00 Overcast OVC038 68 64.4 88% 29.95 0.0
30 08:55 S 8 10.00 Overcast OVC038 68 64.4 88% 29.94 0.0
30 08:35 S 9 10.00 Overcast OVC038 68 64.4 88% 29.94 0.0
30 08:15 S 8 10.00 Overcast OVC038 68 64.4 88% 29.95 0.0
30 07:55 S 9 10.00 Overcast OVC038 68 64.4 68 65.1 88% 29.95 0.0 0.01
30 07:35 Vrbl 6 10.00 Overcast OVC036 68 64.4 88% 29.94 0.0
30 07:15 S 7 G 16 10.00 Light Rain OVC034 68 64.4 88% 29.94 0.0
30 06:55 S 12 10.00 Overcast OVC034 68 64.4 88% 29.93 0.0
30 06:35 S 7 10.00 Overcast OVC036 68 64.4 88% 29.94 0.0
30 06:15 SE 6 10.00 Overcast OVC038 68 64.4 88% 29.93 0.0
30 05:55 S 7 10.00 Overcast OVC038 68 64.4 88% 29.94 0.0
30 05:35 S 7 10.00 Overcast OVC040 68 64.4 88% 29.94 0.0
30 05:15 SE 9 10.00 Light Rain OVC040 68 64.4 88% 29.94 0.0
30 04:55 S 7 G 16 10.00 Overcast OVC042 68 62.6 83% 29.95 0.0
30 04:35 SE 9 10.00 Overcast OVC047 68 62.6 83% 29.95 0.0
30 04:15 SE 8 10.00 Overcast OVC047 68 62.6 83% 29.95 0.0
30 03:55 SE 10 10.00 Overcast OVC047 68 62.6 83% 29.96 0.0
30 03:35 SE 8 10.00 Overcast SCT049 BKN060 OVC075 66.2 62.6 88% 29.96 0.0
30 03:15 SE 10 10.00 Overcast OVC070 66.2 62.6 88% 29.97 0.0
30 02:55 SE 9 10.00 Overcast FEW048 OVC080 66.2 62.6 88% 29.98 0.0
30 02:35 SE 10 10.00 Overcast BKN048 OVC080 66.2 62.6 88% 29.99 0.0
30 02:15 SE 7 10.00 Overcast BKN048 OVC090 66.2 62.6 88% 30 0.0
30 01:55 SE 7 10.00 Overcast OVC090 66.2 62.6 67.3 64.6 88% 30.01 0.0
30 01:35 SE 6 10.00 Overcast OVC090 64.4 62.6 94% 30.02 0.0
30 01:15 SE 5 10.00 Overcast OVC090 64.4 62.6 94% 30.02 0.0
30 00:55 SE 5 10.00 Overcast FEW042 FEW050 OVC090 64.4 62.6 94% 30.02 0.0
30 00:35 SE 5 10.00 Overcast BKN044 BKN050 OVC090 64.4 62.6 94% 30.02 0.0
30 00:15 SE 5 10.00 Overcast OVC046 64.4 62.6 94% 30.02 0.0
29 23:55 E 5 10.00 Overcast OVC050 64.4 62.6 94% 30.02 0.0
29 23:35 E 6 10.00 Overcast SCT060 OVC090 64.4 62.6 94% 30.02 0.0
29 23:15 SE 5 10.00 Overcast FEW060 OVC090 64.4 62.6 94% 30.03 0.0
29 22:55 SE 6 10.00 Overcast SCT070 OVC090 64.4 62.6 94% 30.04 0.0 0.02
29 22:35 SE 6 10.00 Overcast BKN065 OVC080 64.4 62.6 94% 30.04 0.0
29 22:15 SE 6 8.00 Light Rain SCT020 BKN065 OVC080 64.4 62.6 94% 30.04 0.0
29 21:55 E 5 4.00 Light Rain Fog/Mist SCT020 BKN025 OVC040 64.4 64.4 100% 30.05 0.0 0.15
29 21:35 SE 3 4.00 Rain Fog/Mist BKN025 BKN040 OVC048 66.2 64.4 94% 30.05 0.0
29 21:15 SE 3 10.00 Light Drizzle FEW025 BKN040 OVC055 66.2 64.4 94% 30.04 0.0
29 20:55 E 7 5.00 Light Rain Fog/Mist SCT055 BKN080 66.2 64.4 94% 30.04 0.0 0.08
29 20:35 E 2 3.00 Light Rain Fog/Mist BKN055 66.2 66.2 100% 30.04 0.0
29 20:15 S 3 5.00 Light Rain Fog/Mist SCT010 OVC060 68 66.2 94% 30.04 0.0
29 19:55 S 2 6.00 Light Rain Fog/Mist SCT012 OVC070 68 66.2 72.3 67.3 94% 30.04 0.0 0.01
29 19:35 Vrbl 3 7.00 Light Rain OVC070 68 64.4 88% 30.04 0.0
29 19:15 Vrbl 3 9.00 Light Rain OVC070 68 66.2 94% 30.04 0.0
29 18:55 S 6 9.00 Overcast OVC080 68 66.2 94% 30.04 0.0
29 18:35 SW 8 6.00 Fog/Mist OVC090 68 66.2 94% 30.05 0.0
29 18:15 Vrbl 5 9.00 Overcast OVC090 68 66.2 94% 30.05 0.0
29 17:55 S 3 5.00 Fog/Mist SCT065 SCT075 OVC090 68 66.2 94% 30.05 0.0
29 17:35 Vrbl 5 10.00 Overcast FEW007 BKN075 OVC080 68 66.2 94% 30.05 0.0
29 17:15 SW 7 9.00 Overcast BKN007 BKN075 OVC110 68 66.2 94% 30.05 0.0
29 16:35 S 5 6.00 Light Rain Fog/Mist OVC007 68 66.2 94% 30.06 0.0
29 16:15 SW 6 6.00 Light Rain Fog/Mist BKN009 BKN027 OVC060 68 66.2 94% 30.08 0.0
29 15:55 SW 8 5.00 Light Rain Fog/Mist BKN009 BKN042 OVC070 68 66.2 94% 30.08 0.0 0.03
29 15:35 Vrbl 5 6.00 Light Rain Fog/Mist SCT011 BKN047 OVC070 69.8 66.2 88% 30.09 0.0
29 15:15 SW 7 8.00 Light Rain BKN046 BKN060 OVC070 69.8 66.2 88% 30.09 0.0
29 14:55 Vrbl 7 10.00 Mostly Cloudy BKN046 BKN050 BKN070 71.6 66.2 83% 30.09 0.0
29 14:35 Vrbl 6 10.00 Mostly Cloudy BKN050 BKN070 71.6 66.2 83% 30.08 0.0
29 14:15 SW 7 10.00 Overcast OVC050 71.6 66.2 83% 30.08 0.0
29 13:55 SW 7 10.00 Mostly Cloudy BKN050 71.6 66.2 74.5 67.6 83% 30.08 0.0
29 13:35 S 9 10.00 Partly Cloudy SCT050 71.6 66.2 83% 30.09 0.0
29 13:15 SW 8 10.00 Mostly Cloudy BKN050 BKN065 71.6 64.4 78% 30.09 0.0
29 12:55 Vrbl 7 10.00 A Few Clouds FEW050 73.4 64.4 74% 30.09 0.0
29 12:35 SW 8 10.00 Mostly Cloudy SCT048 BKN060 73.4 64.4 74% 30.09 0.0
29 12:15 S 7 10.00 Mostly Cloudy BKN050 BKN060 73.4 64.4 74% 30.1 0.0
29 11:55 S 7 10.00 Partly Cloudy SCT050 73.4 66.2 78% 30.1 0.0
29 11:35 Vrbl 6 10.00 Fair CLR 71.6 64.4 78% 30.1 0.0
29 11:15 SW 7 10.00 Fair CLR 71.6 66.2 83% 30.1 0.0
29 10:55 SW 8 10.00 Fair CLR 73.4 66.2 78% 30.09 0.0
29 10:35 SW 7 10.00 Fair CLR 73.4 66.2 78% 30.09 0.0
29 10:15 Vrbl 6 10.00 Fair CLR 71.6 66.2 83% 30.1 0.0
29 09:55 SW 6 10.00 Fair CLR 69.8 66.2 88% 30.1 0.0
29 09:35 SW 7 10.00 Fair CLR 69.8 64.4 83% 30.1 0.0
29 09:15 SW 9 10.00 Fair CLR 69.8 64.4 83% 30.1 0.0
29 08:55 SW 7 10.00 Fair CLR 69.8 64.4 83% 30.09 0.0
29 08:35 S 6 10.00 Fair CLR 68 64.4 88% 30.09 0.0
29 08:15 Vrbl 5 10.00 Fair CLR 68 64.4 88% 30.08 0.0
29 07:55 S 6 10.00 Fair CLR 68 62.6 69.3 63.5 83% 30.08 0.0
29 07:35 Vrbl 7 10.00 Fair CLR 68 62.6 83% 30.08 0.0
29 07:15 Vrbl 6 10.00 Fair CLR 68 62.6 83% 30.08 0.0
29 06:55 Vrbl 7 10.00 Fair CLR 68 62.6 83% 30.08 0.0
29 06:35 SW 7 10.00 Fair CLR 68 62.6 83% 30.08 0.0
29 06:15 Vrbl 6 10.00 Fair CLR 68 62.6 83% 30.09 0.0
29 05:55 SW 6 10.00 Fair CLR 68 62.6 83% 30.08 0.0
29 05:35 Vrbl 5 10.00 Fair CLR 68 62.6 83% 30.07 0.0
29 05:15 Vrbl 5 10.00 Fair CLR 68 62.6 83% 30.08 0.0
29 04:55 Vrbl 7 10.00 Fair CLR 68 60.8 78% 30.08 0.0
29 04:35 Vrbl 7 10.00 Fair CLR 69.8 60.8 73% 30.08 0.0
29 04:15 S 8 10.00 Fair CLR 69.8 60.8 73% 30.08 0.0
29 03:55 S 9 10.00 Fair CLR 69.8 59 69% 30.08 0.0
29 03:35 Vrbl 6 10.00 Fair CLR 68 59 73% 30.08 0.0
29 03:15 Vrbl 6 10.00 Fair CLR 68 59 73% 30.08 0.0
29 02:55 Vrbl 5 10.00 Fair CLR 68 57.2 69% 30.08 0.0
29 02:35 Vrbl 6 10.00 Fair CLR 68 57.2 69% 30.08 0.0
29 02:15 Vrbl 3 10.00 Fair CLR 68 57.2 69% 30.08 0.0
29 01:55 Vrbl 3 10.00 Fair CLR 66.2 57.2 69.4 58.5 73% 30.08 0.0
29 01:35 Vrbl 3 10.00 Fair CLR 62.6 57.2 83% 30.09 0.0
29 01:15 Vrbl 2 10.00 Fair CLR 60.8 57.2 88% 30.09 0.0
29 00:55 Vrbl 1 10.00 Fair CLR 60.8 57.2 88% 30.09 0.0
29 00:35 Vrbl 1 10.00 Fair CLR 60.8 57.2 88% 30.09 0.0
29 00:15 Vrbl 2 10.00 Fair CLR 59 57.2 94% 30.09 0.0
28 23:55 Vrbl 1 10.00 Fair CLR 59 57.2 94% 30.09 0.0
28 23:35 N 1 10.00 Fair CLR 59 57.2 94% 30.09 0.0
28 23:15 Vrbl 1 10.00 Fair CLR 60.8 57.2 88% 30.09 0.0
28 22:55 NE 2 10.00 Fair CLR 62.6 57.2 83% 30.09 0.0
28 22:35 Vrbl 1 10.00 Fair CLR 62.6 59 88% 30.09 0.0
28 22:15 Vrbl 2 10.00 Fair CLR 64.4 59 83% 30.1 0.0
28 21:55 Calm 10.00 Fair CLR 64.4 60.8 88% 30.1 0.0
28 21:35 N 1 10.00 Fair CLR 64.4 60.8 88% 30.1 0.0
28 21:15 Vrbl 2 10.00 Fair CLR 64.4 62.6 94% 30.1 0.0
28 20:55 E 2 10.00 Fair CLR 66.2 64.4 94% 30.09 0.0
28 20:35 Vrbl 5 10.00 Fair CLR 68 64.4 88% 30.1 0.0
28 20:15 S 3 10.00 Fair CLR 68 64.4 88% 30.1 0.0
28 19:55 SW 5 10.00 Fair CLR 69.8 64.4 76.8 69.4 83% 30.09 0.0
28 19:35 SW 5 10.00 Fair CLR 69.8 64.4 83% 30.09 0.0
28 19:15 S 5 10.00 Fair CLR 71.6 64.4 78% 30.1 0.0
28 18:55 SW 7 10.00 Fair CLR 71.6 64.4 78% 30.1 0.0
28 18:35 SW 7 10.00 Fair CLR 71.6 64.4 78% 30.1 0.0
28 18:15 SW 7 10.00 Fair CLR 73.4 62.6 69% 30.1 0.0
28 17:55 SW 8 10.00 Fair CLR 73.4 62.6 69% 30.1 0.0
28 17:35 SW 6 10.00 Fair CLR 73.4 62.6 69% 30.11 0.0
28 17:15 W 6 10.00 A Few Clouds FEW070 73.4 62.6 69% 30.11 0.0
28 16:55 SW 10 10.00 Partly Cloudy SCT070 75.2 62.6 65% 77 30.11 0.0
28 16:35 SW 10 10.00 Mostly Cloudy BKN070 73.4 62.6 69% 30.11 0.0
28 16:15 SW 7 10.00 Mostly Cloudy BKN070 73.4 60.8 65% 30.12 0.0
28 15:55 SW 9 10.00 A Few Clouds FEW080 75.2 59 57% 78 30.12 0.0
28 15:35 W 8 10.00 Partly Cloudy SCT070 75.2 59 57% 78 30.12 0.0
28 15:15 SW 9 10.00 Mostly Cloudy BKN070 BKN080 75.2 57.2 54% 78 30.13 0.0
28 14:55 SW 9 10.00 Mostly Cloudy FEW037 BKN070 73.4 57.2 57% 30.13 0.0
28 14:35 SW 7 10.00 Mostly Cloudy BKN035 BKN070 75.2 57.2 54% 78 30.14 0.0
28 14:15 SW 10 10.00 Overcast OVC031 75.2 57.2 54% 78 30.14 0.0
28 13:55 S 10 10.00 Overcast BKN031 BKN041 OVC075 75.2 53.6 76.3 55.4 47% 78 30.14 0.0
28 13:35 Vrbl 7 10.00 Mostly Cloudy FEW033 BKN041 BKN075 73.4 50 44% 30.15 0.0
28 13:15 S 6 10.00 Mostly Cloudy SCT035 BKN041 BKN080 73.4 48.2 41% 30.15 0.0
28 12:55 W 8 10.00 A Few Clouds FEW045 FEW070 FEW080 75.2 48.2 39% 77 30.15 0.0
28 12:35 SW 7 G 17 10.00 Mostly Cloudy SCT045 BKN080 73.4 48.2 41% 30.16 0.0
28 12:15 S 12 10.00 Overcast OVC080 73.4 48.2 41% 30.16 0.0
28 11:55 S 8 10.00 Overcast FEW050 OVC080 71.6 48.2 44% 30.17 0.0
28 11:35 S 8 10.00 Mostly Cloudy BKN050 BKN090 71.6 48.2 44% 30.17 0.0
28 11:15 S 9 10.00 Partly Cloudy SCT050 SCT090 71.6 51.8 50% 30.17 0.0
28 10:55 S 7 10.00 Mostly Cloudy SCT050 BKN090 69.8 53.6 57% 30.17 0.0
28 10:35 SE 6 10.00 Mostly Cloudy SCT060 BKN070 BKN080 68 53.6 60% 30.17 0.0
28 10:15 S 5 10.00 Overcast SCT060 SCT070 OVC080 66.2 53.6 64% 30.17 0.0
28 09:55 S 5 10.00 Overcast FEW060 OVC080 66.2 55.4 68% 30.17 0.0
28 09:35 SE 6 10.00 Overcast SCT050 OVC080 64.4 55.4 73% 30.17 0.0
28 09:15 Calm 10.00 Overcast OVC050 62.6 57.2 83% 30.17 0.0
28 08:55 Calm 10.00 Overcast BKN050 OVC090 62.6 55.4 77% 30.17 0.0
28 08:35 Calm 10.00 Mostly Cloudy SCT055 SCT080 BKN090 59 55.4 88% 30.16 0.0
28 08:15 NW 1 10.00 Partly Cloudy SCT055 SCT090 57.2 55.4 94% 30.15 0.0
28 07:55 S 1 10.00 Mostly Cloudy BKN055 BKN070 55.4 55.4 57 53.2 100% 30.15 0.0
28 07:35 Calm 10.00 Overcast OVC055 55.4 55.4 100% 30.15 0.0
28 07:15 N 1 10.00 Overcast BKN055 OVC100 55.4 53.6 94% 30.15 0.0
28 06:55 Calm 10.00 Overcast BKN055 OVC100 55.4 53.6 94% 30.14 0.0
28 06:35 SE 1 10.00 Overcast BKN055 OVC070 57.2 55.4 94% 30.13 0.0
28 06:15 Calm 10.00 Overcast BKN055 OVC070 55.4 55.4 100% 30.13 0.0
28 05:55 W 1 10.00 Mostly Cloudy SCT065 BKN070 BKN095 55.4 53.6 94% 30.12 0.0
28 05:35 Calm 10.00 Overcast BKN050 BKN065 OVC095 57.2 55.4 94% 30.12 0.0
28 05:15 Calm 10.00 Overcast BKN050 OVC095 55.4 55.4 100% 30.12 0.0
28 04:55 Calm 10.00 Overcast OVC050 57.2 55.4 94% 30.12 0.0
28 04:35 Calm 10.00 Overcast OVC050 57.2 55.4 94% 30.11 0.0
28 04:15 N 1 10.00 Overcast BKN050 BKN065 OVC100 55.4 53.6 94% 30.11 0.0
28 03:35 SE 2 10.00 Overcast OVC050 55.4 53.6 94% 30.1 0.0
28 03:15 Vrbl 1 10.00 Overcast OVC050 55.4 53.6 94% 30.1 0.0
28 02:55 Calm 10.00 Overcast OVC050 55.4 53.6 94% 30.1 0.0
28 02:35 Calm 10.00 Overcast OVC050 55.4 53.6 94% 30.1 0.0
28 02:15 NW 1 10.00 Overcast OVC050 55.4 53.6 94% 30.1 0.0
28 01:55 SW 1 10.00 Partly Cloudy SCT050 SCT070 53.6 51.8 67.6 53.1 94% 30.1 0.0
Date Time (edt) Wind (mph) Vis. (mi.) Weather Sky Cond. Air Dwpt Max. Min. Relative Humidity Wind Chill (°F) Heat Index (°F) altimeter (in) sea level (mb) 1 hr 3 hr 6 hr
6 hour
Temperature (ºF) Pressure Precipitation (in)